This is the latest recevied weather packets stored in our database for station/object AA5QJ. If no packets are shown the sender has not sent any weather packets the latest 1 day(s).
| Time | Temp. | Humidity | Pressure | Rain* | Wind** | Luminosity | Snow |
|---|---|---|---|---|---|---|---|
| 1777974475 | -1.11° C | 57% | 1008.2 hPa | 0 mm | 2.24 m/s, 259° | - | - |
| 1777974175 | -3.33° C | 57% | 1008.2 hPa | 0 mm | 2.24 m/s, 163° | - | - |
| 1777973875 | -2.22° C | 56% | 1008.2 hPa | 0 mm | 2.68 m/s, 150° | - | - |
| 1777973575 | -1.11° C | 56% | 1008.2 hPa | 0 mm | 1.79 m/s, 217° | - | - |
| 1777973276 | -0.56° C | 56% | 1008.2 hPa | 0 mm | 1.79 m/s, 195° | - | - |
| 1777972976 | -2.22° C | 56% | 1008.2 hPa | 0 mm | 2.68 m/s, 165° | - | - |
| 1777972675 | -0.56° C | 56% | 1008.2 hPa | 0 mm | 1.79 m/s, 145° | - | - |
| 1777972375 | 0.56° C | 56% | 1008.2 hPa | 0 mm | 2.24 m/s, 186° | - | - |
| 1777972075 | 0.56° C | 56% | 1008.2 hPa | 0 mm | 2.68 m/s, 132° | - | - |
| 1777971774 | 0° C | 56% | 1008.2 hPa | 0 mm | 1.79 m/s, 191° | - | - |
| 1777971474 | 0° C | 56% | 1008.2 hPa | 0 mm | 1.34 m/s, 177° | - | - |
| 1777971174 | 0° C | 55% | 1008.2 hPa | 0 mm | 1.79 m/s, 118° | - | - |
| 1777970874 | 1.11° C | 55% | 1008.5 hPa | 0 mm | 1.79 m/s, 172° | - | - |
| 1777970576 | 0.56° C | 55% | 1008.5 hPa | 0 mm | 1.34 m/s, 158° | - | - |
| 1777970274 | 1.67° C | 54% | 1008.2 hPa | 0 mm | 0.89 m/s, 172° | - | - |
| 1777969976 | 0° C | 53% | 1008.2 hPa | 0 mm | 2.24 m/s, 145° | - | - |
| 1777969676 | 1.11° C | 52% | 1008.2 hPa | 0 mm | 1.79 m/s, 122° | - | - |
| 1777969375 | 2.78° C | 51% | 1008.2 hPa | 0 mm | 1.34 m/s, 104° | - | - |
| 1777969075 | 3.89° C | 50% | 1008.2 hPa | 0 mm | 1.79 m/s, 124° | - | - |
| 1777968774 | 2.78° C | 50% | 1008.2 hPa | 0 mm | 1.34 m/s, 149° | - | - |
| 1777968474 | 4.44° C | 50% | 1008.2 hPa | 0 mm | 2.24 m/s, 215° | - | - |
| 1777968176 | 3.89° C | 50% | 1008.2 hPa | 0 mm | 3.13 m/s, 249° | - | - |
| 1777967875 | 3.89° C | 51% | 1008.5 hPa | 0 mm | 2.68 m/s, 226° | - | - |
| 1777967575 | 4.44° C | 52% | 1008.5 hPa | 0 mm | 2.24 m/s, 170° | - | - |
| 1777967275 | 4.44° C | 52% | 1008.5 hPa | 0 mm | 1.79 m/s, 166° | - | - |
* Rain latest hour (hover to see other rain measurements)
** Current wind speed in m/s (hover to see current wind gust speed)